Location: Ellerstadt
(49.4644°N, 8.2615°E)
Time: 20:17:21
(UTC+00:00)

Vanguard 1 - Pass Details

Date: 16 June 2021
Orbit: 651 x 3831 km, 34.2° (Epoch: 29 July)

Event Time Altitude Azimuth Distance (km) Brightness Sun altitude
Rises 18:26:45 0° 188° (S) 7,872 14.5 8.6°
Reaches altitude 10° 18:35:06 10° 173° (S) 6,927 14.1 7.4°
Maximum altitude 18:47:47 18° 139° (SE) 5,935 13.5 5.6°
Drops below altitude 10° 18:58:45 10° 105° (ESE) 5,975 13.5 4.1°
Sets 19:04:50 0° 89° (E) 6,472 13.7 3.2°
